Location: Doughton Park
(36.4224°N, 81.1835°W)
Time: 13:11:13
(UTC-04:00)

Amateur Radio Satellites - All Passes

Search period start: 23 October 2014 12:41
Search period end: 24 October 2014 12:41
Location: Doughton Park, 36.4224°N, 81.1835°W

Satellite Date Start Highest point End Downlink Frequencies (MHz)
Time Altitude Azimuth
Oscar 16 23 Oct 12:44:33 12:46:24 12° 62° (ENE) 12:48:14 437.025 USB, Beacon 2401.1428
FUNcube-1 23 Oct 12:45:40 12:48:41 19° 292° (WNW) 12:51:40 145.950 - 145.970 MHz USB
Sapphire 23 Oct 13:32:34 13:37:17 29° 54° (NE) 13:41:59 437.095 MHz 1200 baud AX-25 AFSK
Oscar 19 23 Oct 13:34:58 13:39:39 37° 70° (ENE) 13:44:21 437.125 CW, 437.150 USB
SO-50 23 Oct 13:40:05 13:44:29 63° 117° (ESE) 13:49:01 436.795 FM
AO-27 23 Oct 13:49:37 13:53:27 21° 66° (ENE) 13:57:18 436.795 MHz FM
JAS-1B 23 Oct 13:50:46 13:56:32 45° 71° (ENE) 14:01:54 435.800 - 435.900 CW/SSB
PCSat 23 Oct 13:54:58 14:00:14 49° 59° (ENE) 14:05:27 145.825 MHz
ISS 23 Oct 13:58:29 14:01:46 63° 321° (NW) 14:05:05 145.800 FM
Oscar 10/S400 23 Oct 14:08:53 14:28:14 44° 154° (SSE) 14:50:16 145.825 - 145.975 CW/USB, Beacon 145.810 USB
KITSAT 1 23 Oct 14:18:12 14:25:43 41° 307° (NW) 14:33:17 435.175 FM
Oscar 16 23 Oct 14:19:53 14:25:03 78° 257° (WSW) 14:30:14 437.025 USB, Beacon 2401.1428
AO-Echo 23 Oct 14:28:04 14:32:49 61° 74° (ENE) 14:37:45 ?
Uribyol 2 23 Oct 14:36:34 14:41:43 64° 74° (ENE) 14:46:54 436.500 FM
AO-7 23 Oct 14:37:22 14:40:01 12° 49° (NE) 14:42:39 29.400 - 29.500 MHz
ITAMSAT 1 23 Oct 14:42:11 14:47:20 68° 74° (ENE) 14:52:32 435.822 SSB
Gurwin Techsat 1B 23 Oct 14:53:00 14:57:59 43° 71° (ENE) 15:02:59 435.225 FM
TMSAT-1 23 Oct 15:05:19 15:10:15 41° 71° (ENE) 15:15:13 436.925 FM
UOSAT-12 23 Oct 15:12:20 15:16:45 48° 115° (ESE) 15:21:16 437.025 FM, 437.400 FM
Oscar 19 23 Oct 15:15:01 15:19:02 23° 265° (W) 15:23:05 437.125 CW, 437.150 USB
Sapphire 23 Oct 15:15:49 15:20:42 35° 251° (WSW) 15:25:34 437.095 MHz 1200 baud AX-25 AFSK
SO-50 23 Oct 15:22:48 15:25:28 15° 315° (NW) 15:28:11 436.795 FM
AO-27 23 Oct 15:27:43 15:32:38 42° 261° (W) 15:37:35 436.795 MHz FM
ISS 23 Oct 15:37:43 15:39:01 12° 338° (NNW) 15:40:19 145.800 FM
PCSat 23 Oct 15:39:23 15:43:13 20° 255° (WSW) 15:47:03 145.825 MHz
JAS-1B 23 Oct 15:42:58 15:47:24 20° 264° (W) 15:51:35 435.800 - 435.900 CW/SSB
AO-Echo 23 Oct 16:10:03 16:12:01 12° 270° (W) 16:14:00 ?
Uosat F 23 Oct 16:12:26 16:16:31 26° 68° (ENE) 16:20:38 435.120 FM
Uribyol 2 23 Oct 16:19:08 16:21:34 13° 268° (W) 16:24:01 436.500 FM
KITSAT 1 23 Oct 16:22:20 16:23:41 10° 332° (NNW) 16:25:03 435.175 FM
AO-7 23 Oct 16:23:02 16:31:07 62° 68° (ENE) 16:39:14 29.400 - 29.500 MHz
ITAMSAT 1 23 Oct 16:25:10 16:27:15 12° 269° (W) 16:29:21 435.822 SSB
Gurwin Techsat 1B 23 Oct 16:34:13 16:38:06 21° 266° (W) 16:42:00 435.225 FM
TMSAT-1 23 Oct 16:46:19 16:50:17 21° 266° (W) 16:54:17 436.925 FM
UOSAT-12 23 Oct 16:53:48 16:57:09 19° 312° (NW) 17:00:33 437.025 FM, 437.400 FM
Saudisat 1A 23 Oct 16:55:26 16:59:11 26° 52° (NE) 17:02:55 436.775 MHz
JAS-2 23 Oct 17:12:04 17:16:52 27° 64° (ENE) 17:22:08 435.800 - 435.900 CW/SSB, 435.910 FM
Uosat F 23 Oct 17:50:41 17:55:08 32° 263° (W) 17:59:38 435.120 FM
OPAL 23 Oct 17:51:12 17:55:05 23° 97° (E) 17:58:57 ?
AO-7 23 Oct 18:17:43 18:24:17 26° 264° (W) 18:30:55 29.400 - 29.500 MHz
Hamsat 23 Oct 18:21:10 18:25:22 68° 76° (ENE) 18:29:32 145.90 MHz
Saudisat 1A 23 Oct 18:34:53 18:38:42 29° 247° (WSW) 18:42:29 436.775 MHz
ISS 23 Oct 18:54:31 18:55:11 10° 20° (NNE) 18:55:50 145.800 FM
JAS-2 23 Oct 18:56:10 19:01:34 42° 263° (W) 19:07:40 435.800 - 435.900 CW/SSB, 435.910 FM
SO-67 23 Oct 19:00:26 19:02:49 18° 71° (ENE) 19:05:12 435.3500 MHz FM
OPAL 23 Oct 19:29:32 19:34:00 35° 292° (WNW) 19:38:27 ?
STRAND 1 23 Oct 19:32:55 19:37:21 29° 97° (E) 19:41:45 ?
KITSAT 1 23 Oct 20:19:47 20:24:21 16° 36° (NE) 20:28:54 435.175 FM
ISS 23 Oct 20:29:17 20:32:32 49° 38° (NE) 20:35:46 145.800 FM
HO-68 23 Oct 20:30:50 20:36:53 31° 63° (ENE) 20:42:57 435.675 MHz FM
AO-40 23 Oct 20:31:12 23:15:27 24° 114° (ESE) 00:31:20 Beacon 2401.320
SO-67 23 Oct 20:33:03 20:35:38 20° 265° (W) 20:38:15 435.3500 MHz FM
STRAND 1 23 Oct 21:12:01 21:16:27 30° 291° (WNW) 21:20:51 ?
UKube-1 23 Oct 21:25:46 21:29:00 21° 68° (ENE) 21:32:16 145.840 MHz, 145.915 MHz
FUNcube-1 23 Oct 22:02:57 22:06:19 21° 68° (ENE) 22:09:41 145.950 - 145.970 MHz USB
ISS 23 Oct 22:07:05 22:08:54 14° 232° (SW) 22:10:43 145.800 FM
Oscar 11 23 Oct 22:07:19 22:11:32 53° 74° (ENE) 22:15:45 145.825 FM, Beacon 2401.500 USB
RS-15 23 Oct 22:12:34 22:22:48 46° 109° (ESE) 22:32:53 29.354 - 29.394 USB, Beacon 29.352 USB
KITSAT 1 23 Oct 22:13:25 22:21:27 65° 59° (ENE) 22:29:26 435.175 FM
SO-50 23 Oct 22:14:10 22:18:28 31° 52° (NE) 22:22:46 436.795 FM
HO-68 23 Oct 22:17:27 22:24:16 47° 260° (W) 22:31:09 435.675 MHz FM
ZACube-1 23 Oct 22:52:43 22:57:18 74° 76° (ENE) 23:01:52 437.345 MHz
UKube-1 23 Oct 23:01:10 23:04:59 30° 262° (W) 23:08:50 145.840 MHz, 145.915 MHz
FUNcube-1 23 Oct 23:38:16 23:42:27 34° 263° (W) 23:46:36 145.950 - 145.970 MHz USB
UOSAT-12 23 Oct 23:44:46 23:48:32 23° 49° (NE) 23:52:14 437.025 FM, 437.400 FM
Oscar 11 23 Oct 23:46:44 23:47:59 11° 269° (W) 23:49:15 145.825 FM, Beacon 2401.500 USB
MaSat-1 23 Oct 23:53:11 23:56:50 28° 108° (ESE) 00:00:14 437.345 MHz
SO-50 23 Oct 23:54:44 23:58:57 30° 248° (WSW) 00:03:10 436.795 FM
KITSAT 1 24 Oct 00:10:00 00:16:10 25° 256° (WSW) 00:22:20 435.175 FM
RS-15 24 Oct 00:24:29 00:34:59 49° 309° (NW) 00:45:29 29.354 - 29.394 USB, Beacon 29.352 USB
UOSAT-12 24 Oct 01:24:26 01:28:47 38° 246° (WSW) 01:33:03 437.025 FM, 437.400 FM
MaSat-1 24 Oct 01:29:15 01:32:27 21° 300° (WNW) 01:35:28 437.345 MHz
JAS-1B 24 Oct 01:37:16 01:41:13 15° 94° (E) 01:45:28 435.800 - 435.900 CW/SSB
Oscar 19 24 Oct 01:50:18 01:53:18 16° 93° (E) 01:56:17 437.125 CW, 437.150 USB
Oscar 16 24 Oct 02:34:20 02:39:15 46° 99° (E) 02:44:08 437.025 USB, Beacon 2401.1428
AO-Echo 24 Oct 02:38:10 02:42:35 26° 95° (E) 02:46:57 ?
RS-15 24 Oct 02:44:43 02:51:02 16° 340° (NNW) 02:57:25 29.354 - 29.394 USB, Beacon 29.352 USB
Uribyol 2 24 Oct 02:52:29 02:56:54 28° 96° (E) 03:01:17 436.500 FM
ITAMSAT 1 24 Oct 02:58:09 03:02:42 30° 97° (E) 03:07:12 435.822 SSB
Gurwin Techsat 1B 24 Oct 03:12:29 03:16:28 21° 94° (E) 03:20:25 435.225 FM
TMSAT-1 24 Oct 03:24:29 03:28:20 20° 94° (E) 03:32:10 436.925 FM
JAS-1B 24 Oct 03:25:20 03:32:05 83° 285° (WNW) 03:40:12 435.800 - 435.900 CW/SSB
Oscar 19 24 Oct 03:27:57 03:32:55 53° 287° (WNW) 03:37:52 437.125 CW, 437.150 USB
AO-27 24 Oct 03:42:59 03:48:15 85° 103° (ESE) 03:53:28 436.795 MHz FM
Sapphire 24 Oct 04:11:34 04:16:38 43° 111° (ESE) 04:21:44 437.095 MHz 1200 baud AX-25 AFSK
Oscar 16 24 Oct 04:14:41 04:18:14 19° 295° (WNW) 04:21:46 437.025 USB, Beacon 2401.1428
AO-Echo 24 Oct 04:16:32 04:21:19 35° 290° (WNW) 04:26:05 ?
AO-7 24 Oct 04:28:39 04:34:50 23° 95° (E) 04:40:59 29.400 - 29.500 MHz
Uribyol 2 24 Oct 04:31:46 04:36:19 31° 291° (WNW) 04:40:50 436.500 FM
PCSat 24 Oct 04:33:50 04:39:13 76° 115° (ESE) 04:44:39 145.825 MHz
ITAMSAT 1 24 Oct 04:37:36 04:42:05 30° 292° (WNW) 04:46:32 435.822 SSB
Gurwin Techsat 1B 24 Oct 04:51:35 04:56:33 42° 289° (WNW) 05:01:31 435.225 FM
OPAL 24 Oct 05:03:23 05:07:57 33° 68° (ENE) 05:12:30 ?
TMSAT-1 24 Oct 05:03:24 05:08:24 44° 289° (WNW) 05:13:24 436.925 FM
RS-15 24 Oct 05:03:56 05:10:07 16° 19° (NNE) 05:16:23 29.354 - 29.394 USB, Beacon 29.352 USB
JAS-1B 24 Oct 05:19:07 05:22:01 13° 299° (WNW) 05:25:07 435.800 - 435.900 CW/SSB
AO-27 24 Oct 05:25:37 05:26:59 11° 299° (WNW) 05:28:21 436.795 MHz FM
Sapphire 24 Oct 05:55:49 06:00:12 25° 307° (NW) 06:04:37 437.095 MHz 1200 baud AX-25 AFSK
Uosat F 24 Oct 06:00:14 06:05:18 86° 284° (WNW) 06:10:21 435.120 FM
JAS-2 24 Oct 06:07:00 06:14:05 37° 96° (E) 06:21:05 435.800 - 435.900 CW/SSB, 435.910 FM
Hamsat 24 Oct 06:10:47 06:13:03 14° 93° (E) 06:15:20 145.90 MHz
AO-7 24 Oct 06:19:53 06:28:09 70° 291° (WNW) 06:36:24 29.400 - 29.500 MHz
PCSat 24 Oct 06:20:03 06:23:14 16° 313° (NW) 06:26:26 145.825 MHz
OPAL 24 Oct 06:42:31 06:46:48 26° 262° (W) 06:51:04 ?
STRAND 1 24 Oct 06:46:25 06:50:56 32° 69° (ENE) 06:55:29 ?
Saudisat 1A 24 Oct 07:02:11 07:03:29 11° 107° (ESE) 07:04:46 436.775 MHz
RS-15 24 Oct 07:15:53 07:26:29 46° 49° (NE) 07:37:26 29.354 - 29.394 USB, Beacon 29.352 USB
Hamsat 24 Oct 07:45:14 07:49:08 39° 287° (WNW) 07:53:04 145.90 MHz
JAS-2 24 Oct 07:51:45 07:59:02 45° 291° (WNW) 08:06:20 435.800 - 435.900 CW/SSB, 435.910 FM
SO-67 24 Oct 07:58:03 08:01:05 28° 97° (E) 08:04:06 435.3500 MHz FM
PANSAT 24 Oct 08:11:09 08:13:33 16° 165° (SSE) 08:15:58 not established
AO-7 24 Oct 08:15:40 08:19:26 14° 310° (NW) 08:23:13 29.400 - 29.500 MHz
STRAND 1 24 Oct 08:25:51 08:30:05 26° 264° (W) 08:34:22 ?
Saudisat 1A 24 Oct 08:38:09 08:42:28 61° 302° (WNW) 08:46:51 436.775 MHz
RS-15 24 Oct 09:28:17 09:38:58 52° 250° (WSW) 09:50:09 29.354 - 29.394 USB, Beacon 29.352 USB
SO-67 24 Oct 09:32:07 09:33:46 13° 291° (WNW) 09:35:25 435.3500 MHz FM
MaSat-1 24 Oct 09:42:10 09:43:54 16° 59° (ENE) 09:45:34 437.345 MHz
HO-68 24 Oct 09:47:46 09:54:26 39° 99° (E) 10:01:01 435.675 MHz FM
PANSAT 24 Oct 09:50:01 09:53:10 24° 178° (S) 09:56:19 not established
Oscar 11 24 Oct 09:59:39 10:01:11 12° 92° (E) 10:02:42 145.825 FM, Beacon 2401.500 USB
ZACube-1 24 Oct 10:46:01 10:48:41 16° 93° (E) 10:51:18 437.345 MHz
UKube-1 24 Oct 10:51:14 10:55:31 53° 101° (E) 10:59:46 145.840 MHz, 145.915 MHz
FUNcube-1 24 Oct 11:29:42 11:33:52 54° 100° (E) 11:37:57 145.950 - 145.970 MHz USB
PANSAT 24 Oct 11:29:59 11:32:49 20° 191° (S) 11:35:39 not established
Oscar 11 24 Oct 11:33:27 11:37:37 50° 286° (WNW) 11:41:46 145.825 FM, Beacon 2401.500 USB
HO-68 24 Oct 11:35:34 11:41:59 37° 295° (WNW) 11:48:24 435.675 MHz FM
ZACube-1 24 Oct 12:21:20 12:25:11 34° 288° (WNW) 12:28:58 437.345 MHz
SO-50 24 Oct 12:28:24 12:31:01 15° 108° (ESE) 12:33:40 436.795 FM
UKube-1 24 Oct 12:29:19 12:31:13 13° 296° (WNW) 12:33:06 145.840 MHz, 145.915 MHz
